User: anonymous   Login
Location: Unspecified
(0.0000°N, 0.0000°E)
Time: 22:51:01
(UTC+02:00)
Language:

Ariane H10 - Orbit

View from above orbital plane
View from above orbital plane
View from above satellite
View from above satellite

Ground track
Ground track

The orbit data is extracted from the following two-line orbital elements,

1 21815U 91084C   16267.80432664  .00000041  00000-0  34903-3 0  9991
2 21815   3.7066 196.1851 7189834 212.2940  70.1684  2.31665990206153
Epoch (UTC): 23 September 2016 19:18:13
Eccentricity: 0.7189834
inclination: 3.7066°
perigee height: 402 km
apogee height: 35094 km
right ascension of ascending node: 196.1851°
argument of perigee: 212.2940°
revolutions per day: 2.31665990
mean anomaly at epoch: 70.1684°
orbit number at epoch: 20615

The dashed part of the orbit path shows where the satellite is in the earth's shadow,  

DLR